Date String (YYYY-MM-DD hh:mm:ss) UTC,Instrument flags,Ambient pressure (hPa),Sample flow (lpm),Bypass flow (lpm),Sample temperature (°C),Ambient temperature (°C),ASC tube jacket temperature (°C),LED temperature (°C),Box temperature (°C),Sample RH (%),Span deviation,Mass concentration (μg/m³),Mass concentration (μg/m³),Mass concentration (μg/m³)
DateTimeUTC,F1_M11,P_M11,Q1_M11,Q2_M11,T1_M11,T2_M11,T3_M11,T4_M11,T5_M11,U1_M11,ZSPAN_M11,X2_M11,X0_M11,X1_M11
2022-09-08 00:00:00,,0829.7,5.01,0.00,29.5,27.0,00.0,38.1,31.3,18.2,0001.0,0014.86,0029.94,0012.82
2022-09-08 00:01:00,,0829.7,4.99,0.00,29.4,27.3,00.0,38.1,31.2,18.0,0000.9,0014.81,0030.02,0012.80
2022-09-08 00:02:00,,0829.6,5.00,0.00,29.5,27.6,00.0,38.1,31.3,17.7,0001.0,0014.81,0030.26,0012.77
2022-09-08 00:03:00,,0829.6,5.01,0.00,29.5,27.9,00.0,38.1,31.3,17.5,0001.0,0014.86,0032.73,0012.76
2022-09-08 00:04:00,,0829.7,5.01,0.00,29.5,28.2,00.0,38.1,31.4,17.5,0000.7,0014.95,0033.63,0012.77
2022-09-08 00:05:00,,0829.7,4.98,0.00,29.6,28.1,00.0,38.1,31.5,17.9,0000.7,0015.04,0034.71,0012.80
2022-09-08 00:06:00,,0829.6,5.01,0.00,29.6,27.0,00.0,38.1,31.4,18.6,0000.9,0015.18,0035.56,0012.87
2022-09-08 00:07:00,,0829.6,5.00,0.00,29.5,26.5,00.0,38.1,31.3,19.0,0000.8,0015.29,0036.48,0012.92
2022-09-08 00:08:00,,0829.5,4.99,0.00,29.5,26.8,00.0,38.1,31.3,18.6,0000.7,0015.33,0037.18,0012.98
2022-09-08 00:09:00,,0829.5,5.01,0.00,29.5,27.1,00.0,38.1,31.1,18.9,0001.1,0015.33,0037.83,0013.03
2022-09-08 00:10:00,,0829.6,5.00,0.00,29.5,27.5,00.0,38.1,31.2,18.9,0001.4,0015.27,0038.64,0013.07
2022-09-08 00:11:00,,0829.6,5.01,0.00,29.5,27.8,00.0,38.1,31.3,18.8,0001.9,0015.35,0037.84,0013.14
2022-09-08 00:12:00,,0829.5,5.01,0.00,29.5,28.1,00.0,38.1,31.4,18.8,0002.3,0015.48,0038.56,0013.17
2022-09-08 00:13:00,,0829.6,4.99,0.00,29.6,28.3,00.0,38.1,31.5,19.2,0002.9,0015.59,0038.42,0013.23
2022-09-08 00:14:00,,0829.6,5.00,0.00,29.6,27.6,00.0,38.1,31.4,19.2,0002.8,0015.64,0037.21,0013.27
2022-09-08 00:15:00,,0829.5,5.01,0.00,29.5,26.6,00.0,38.1,31.3,19.2,0003.3,0015.74,0038.73,0013.34
2022-09-08 00:16:00,,0829.5,5.00,0.00,29.5,26.7,00.0,38.1,31.3,19.4,0003.9,0015.82,0038.97,0013.38
2022-09-08 00:17:00,,0829.5,4.99,0.00,29.5,26.9,00.0,38.1,31.2,19.1,0004.0,0015.84,0039.13,0013.36
2022-09-08 00:18:00,,0829.5,5.02,0.00,29.4,27.2,00.0,38.1,31.1,18.8,0004.2,0015.84,0038.69,0013.35
2022-09-08 00:19:00,,0829.5,5.00,0.00,29.5,27.6,00.0,38.1,31.2,18.5,0003.9,0015.89,0039.21,0013.34
2022-09-08 00:20:00,,0829.5,5.00,0.00,29.5,27.9,00.0,38.1,31.3,18.1,0003.4,0015.97,0039.25,0013.32
2022-09-08 00:21:00,,0829.5,5.00,0.00,29.5,28.1,00.0,38.1,31.4,17.9,0002.6,0016.00,0038.87,0013.32
2022-09-08 00:22:00,,0829.6,5.00,0.00,29.6,28.1,00.0,38.1,31.4,17.7,0002.3,0016.00,0038.03,0013.32
2022-09-08 00:23:00,,0829.5,4.99,0.00,29.5,27.0,00.0,38.1,31.3,17.5,0002.0,0015.99,0036.58,0013.32
2022-09-08 00:24:00,,0829.6,5.01,0.00,29.5,26.5,00.0,38.1,31.2,18.0,0001.2,0015.98,0036.59,0013.31
2022-09-08 00:25:00,,0829.6,4.99,0.00,29.5,26.7,00.0,38.1,31.2,17.9,0001.8,0016.05,0036.70,0013.33
2022-09-08 00:26:00,,0829.5,5.01,0.00,29.4,27.0,00.0,38.1,31.1,18.3,0002.3,0016.24,0036.03,0013.34
2022-09-08 00:27:00,,0829.5,5.00,0.00,29.4,27.4,00.0,38.1,31.2,18.2,0002.1,0016.53,0036.23,0013.35
2022-09-08 00:28:00,,0829.5,5.01,0.00,29.4,27.7,00.0,38.1,31.2,18.3,0002.1,0017.27,0040.73,0013.41
2022-09-08 00:29:00,,0829.5,4.98,0.00,29.5,28.0,00.0,38.1,31.3,18.7,0002.0,0017.63,0045.66,0013.44
2022-09-08 00:30:00,,0829.6,5.02,0.00,29.5,28.2,00.0,38.1,31.4,18.6,0001.7,0017.89,0050.65,0013.45
2022-09-08 00:31:00,,0829.6,5.01,0.00,29.5,27.6,00.0,38.1,31.4,18.6,0001.8,0018.05,0054.55,0013.46
2022-09-08 00:32:00,,0829.6,4.98,0.00,29.5,26.5,00.0,38.1,31.3,18.6,0002.1,0018.28,0055.58,0013.48
2022-09-08 00:33:00,,0829.5,5.00,0.00,29.5,26.5,00.0,38.1,31.3,18.6,0002.4,0018.49,0057.35,0013.50
2022-09-08 00:34:00,,0829.5,5.00,0.00,29.4,26.8,00.0,38.0,31.2,18.8,0002.4,0018.57,0058.73,0013.53
2022-09-08 00:35:00,,0829.6,5.02,0.00,29.4,27.1,00.0,38.0,31.1,18.9,0003.1,0018.67,0059.95,0013.53
2022-09-08 00:36:00,,0829.5,5.00,0.00,29.4,27.5,00.0,38.0,31.1,18.9,0002.5,0018.69,0060.76,0013.54
2022-09-08 00:37:00,,0829.5,5.00,0.00,29.4,27.8,00.0,38.0,31.2,18.8,0001.9,0018.60,0061.19,0013.53
2022-09-08 00:38:00,,0829.5,4.99,0.00,29.5,28.0,00.0,38.1,31.3,18.7,0001.8,0018.33,0060.62,0013.52
2022-09-08 00:39:00,,0829.5,5.01,0.00,29.5,28.3,00.0,38.1,31.4,18.6,0001.6,0017.73,0057.54,0013.49
2022-09-08 00:40:00,,0829.5,4.98,0.00,29.5,27.7,00.0,38.1,31.4,18.6,0001.4,0017.13,0053.32,0013.45
2022-09-08 00:41:00,,0829.5,5.00,0.00,29.5,26.6,00.0,38.1,31.3,18.5,0002.0,0016.87,0049.69,0013.46
2022-09-08 00:42:00,,0829.5,5.00,0.00,29.5,26.5,00.0,38.1,31.3,18.5,0002.3,0016.72,0047.20,0013.49
2022-09-08 00:43:00,,0829.6,5.00,0.00,29.4,26.8,00.0,38.0,31.1,18.5,0002.4,0016.65,0046.15,0013.52
2022-09-08 00:44:00,,0829.5,5.00,0.00,29.4,27.1,00.0,38.0,31.1,18.8,0002.3,0016.61,0045.99,0013.55
2022-09-08 00:45:00,,0829.5,5.01,0.00,29.4,27.4,00.0,38.0,31.1,18.6,0002.4,0016.55,0045.53,0013.54
2022-09-08 00:46:00,,0829.5,5.00,0.00,29.4,27.7,00.0,38.0,31.2,17.8,0002.0,0016.48,0043.70,0013.57
2022-09-08 00:47:00,,0829.5,5.02,0.00,29.4,28.0,00.0,38.0,31.3,17.6,0002.4,0016.33,0041.91,0013.58
2022-09-08 00:48:00,,0829.5,4.99,0.00,29.5,28.2,00.0,38.1,31.4,17.8,0002.8,0016.23,0041.04,0013.58
2022-09-08 00:49:00,,0829.5,5.01,0.00,29.5,27.7,00.0,38.1,31.4,18.0,0002.5,0016.14,0040.29,0013.58
2022-09-08 00:50:00,,0829.4,4.99,0.00,29.5,26.5,00.0,38.1,31.3,17.7,0002.8,0016.10,0039.04,0013.59
2022-09-08 00:51:00,,0829.4,5.01,0.00,29.5,26.4,00.0,38.1,31.3,17.7,0002.9,0016.09,0038.44,0013.60
2022-09-08 00:52:00,,0829.5,5.00,0.00,29.4,26.7,00.0,38.0,31.2,17.7,0002.8,0016.02,0036.39,0013.59
2022-09-08 00:53:00,,0829.5,4.99,0.00,29.4,27.0,00.0,38.0,31.1,17.6,0003.1,0015.91,0033.96,0013.57
2022-09-08 00:54:00,,0829.4,5.02,0.00,29.4,27.4,00.0,38.0,31.1,17.3,0002.8,0015.71,0032.31,0013.55
2022-09-08 00:55:00,,0829.5,5.00,0.00,29.4,27.7,00.0,38.0,31.2,17.3,0002.8,0015.55,0030.45,0013.54
2022-09-08 00:56:00,,0829.5,4.99,0.00,29.4,28.0,00.0,38.0,31.3,17.2,0002.8,0015.43,0029.73,0013.53
2022-09-08 00:57:00,,0829.5,5.01,0.00,29.5,28.2,00.0,38.1,31.4,17.1,0003.1,0015.36,0030.71,0013.53
2022-09-08 00:58:00,,0829.5,4.99,0.00,29.5,27.8,00.0,38.1,31.4,17.2,0002.7,0015.40,0031.54,0013.55
2022-09-08 00:59:00,,0829.5,5.00,0.00,29.5,26.6,00.0,38.1,31.3,17.1,0002.3,0015.38,0030.51,0013.55
